Terminal Aerodrome Forecast
Issued by NWS St Louis, MO

Home | Current Version | Previous Version | Text Only | Print | Product List | Glossary On
Versions: 1 2 3 4 5 6 7 8 9 10 11 12 13 14 15 16 17 18 19 20 21 22 23
000
FTUS43 KLSX 280520
TAFSTL
TAF
KSTL 280520Z 2806/2912 VRB04KT P6SM BKN250
     FM281500 16005KT P6SM SCT035
     FM282000 20005KT P6SM VCTS SCT035CB BKN250
     FM290300 13005KT P6SM SCT250
     FM290900 22005KT P6SM SCT250=

USA.gov is the U.S. government's official web portal to all federal, state and local government web resources and services.